STARLINK-35576, 66137

Orbit data source: Space-Track

STARLINK-35576, 66137 is a payload satellite owned by SpaceX/Seattle (US) in LEO that was launched on Wed, 22 Oct 2025 UTC via an FALCON 9 launch vehicle from the Air Force Western Test Range (AFWTR). Payload-class satellites include a variety of spacecraft equipped with specific instruments for various scientific and technological missions. These include communications satellites like Starlink; space stations such as the ISS; scientific satellites like the Hubble; Earth observation satellites from companies like Planet Labs, Umbra, and HawkEye 360; GPS; miniature CubeSats for education and research; and military/defense satellites.

Loading next visibility...
Identifier
66137, 2025-237Z
Orbit
LEO
Country
Flag of USUS
Related business
Manufacturer
SpaceX/Seattle
Mission
Operational Commercial Communications
Bus & Motor
STARLINK V2MO, Unknown motor
Mass
575 kg wet, ~530 kg dry
Launch date (UTC)
2025-10-22 (8 months ago)
Launch vehicle
FALCON 9
Launch site
Air Force Western Test Range (AFWTR)
Object type
Payload
Rocket body
Debris
Shape & HBR
Box + 2 Pan, 17.7 m
Radar Cross Section
36.964 m², Large (>1 m²)

Expand to show TLE details & history
Last TLE update: 14 hours ago

TLE from 14 hours ago
0 STARLINK-35576
1 66137U 25237Z   26171.33546744  .00021319  00000-0  64019-3 0  9994
2 66137  53.1597 282.3059 0001527 103.1692 256.9481 15.34406089 38333
Epoch: 2026-06-20T08:03Z
TLE epoch observation values (Epoch: 2026-06-20T08:03:04.386Z)
Latitude
-0.00004°
Longitude
-107.01397°
Altitude
463.823 km
Speed
7.636 km/s
True Right ascension
18h 49m 13s
True Declination
0° 00' 00"
Sunlit
Object was in full shadow at epoch
Visualization orbit readout
Latitude
Unknown
Longitude
Unknown
Altitude
Unknown
Speed
Unknown
Apparent Right ascension
Unknown
Apparent Declination
Unknown
Sunlit
N/A
Visualization observer readout
Local Sidereal Time
08:43:12
Azimuth
Unknown
Elevation
Unknown
Doppler factor
Unknown
Orbital elements
Apogee altitude
463.987 km
Perigee altitude
461.897 km
Semi-major axis
6,841.079 km
Eccentricity
0.00015
Inclination
53.1597°
RAAN
282.3059°
Arg. of periapsis
103.1692°
True anomaly
256.93105°
Mean anomaly
256.9481°
Eccentric anomaly
256.93958°
Mean motion
3.8358 °/min
Orbital period
93.85 mins
BSTAR
0.00064019
Loading maneuver chart data...
Computing Atmospheric mass density...
Loading historical data...
Loading historical data...
Loading historical data...
Loading historical data...
Loading historical data...
Loading historical data...
Loading historical data...

Documentation

Showing up to 5 results
|